Location: Melara
(45.0500°N, 11.1833°E)
Time: 21:01:55
(UTC+00:00)

Cosmos 2084 Rocket - Pass Details

Date: 26 May 2022
Orbit: 497 x 678 km, 62.8° (Epoch: 02 July)

Event Time Altitude Azimuth Distance (km) Brightness Sun altitude
Exits shadow 01:49:40 17° 265° (W) 1,318 4.9 -14.8°
Maximum altitude 01:51:55 31° 318° (NW) 901 4.5 -14.5°
Drops below altitude 10° 01:55:20 10° 22° (NNE) 1,706 7.1 -14.1°
Sets 01:57:41 0° 33° (NNE) 2,598 8.7 -13.9°
